Погода в Акъяре

Россия / Республика Башкортостан     51°51′49″N   58°13′01″E
темп.,
°C
ветер,
м/с
пор.,
м/с
влажн.,
%
обл.,
%
осадки,
мм/ч
давл.,
гПа
погр.,
м
17 апреля, сб
сб1723:00+11в335468 0.0 102015
02:00+8св488734 0.0 1021146
05:00+6св589857 0.0 1023189
08:00+7св579787 0.0 1023223
11:00+11всв567980 0.0 1022464
14:00+16вюв455043 0.0 1021870
17:00+18вюв343967 0.0 10191323
20:00+14в335497 0.0 101825
18 апреля, вс
вс1823:00+11всв23645 0.0 101819
02:00+10ссв22685 0.0 101711
05:00+8с22740 0.0 101711
08:00+9ссв24755 0.0 1017114
11:00+14св33552 0.0 1016525
14:00+17ссв33475 0.0 10151140
17:00+18всв224310 0.0 10151492
20:00+13всв696522 0.6 1016316
19 апреля, пн
пн1923:00+9всв9126496 0.8 1020768
02:00+4всв9137440 0.0 1023804
05:00+1всв9146675 0.0 1025738
08:000всв91365100 0.0 1027854
11:000в91258100 0.1 1028895
14:00+4в9114578 0.0 10281213
17:00+4в9103943 0.0 10281337
20:00+2всв81143100 0.0 10291049
20 апреля, вт
вт2023:000в81249100 0.0 1031883
02:00−1в81151100 0.0 1032935
05:00−3в712500 0.0 1034849
08:00−2в812410 0.0 1035938
11:00+1в810310 0.0 10351180
14:00+4в79310 0.0 10341317
17:00+5в78310 0.0 10341307
20:00+2в48420 0.0 1034242
21 апреля, ср
ср2123:000в34530 0.0 103664
02:00−1вюв36540 0.0 1035136
05:00−1юв22530 0.0 103619
08:00+1вюв24400 0.0 1037271
11:00+5юв34290 0.0 1036775
14:00+8юв44270 0.0 1035999
17:00+10ююв33260 0.0 10341174
20:00+7юв33383 0.0 103531